Location: Forcarei
(42.5879°N, 8.3520°W)
Time: 19:54:18
(UTC+01:00)

ISS - Visible Passes

Search period start: 12 December 2018 00:00
Search period end: 22 December 2018 00:00
Orbit: 401 x 408 km, 51.6° (Epoch: 13 December)

Date Brightness Start Highest point End Pass type
(mag) Time Alt. Az. Time Alt. Az. Time Alt. Az.
12 Dec -3.9 18:55:56 10° WNW 18:59:13 88° SSW 19:02:28 10° SE visible
12 Dec -0.5 20:34:29 10° WSW 20:35:12 11° SW 20:35:54 10° SW visible
13 Dec -1.1 19:40:49 10° W 19:43:16 20° SW 19:45:42 10° S visible
14 Dec -2.1 18:48:13 10° WNW 18:51:15 36° SW 18:54:16 10° SSE visible
16 Dec -0.6 18:41:00 10° W 18:43:05 16° SW 18:45:08 10° S visible
